Regional Weather Roundup
Issued by NWS Goodland, KS

Home | Current Version | Previous Version | Graphics & Text | Print | Product List | Glossary On
Versions: 1 2 3 4 5 6 7 8 9 10 11 12 13 14 15 16 17 18 19 20 21 22 23 24 25 26 27 28 29 30 31 32 33 34 35 36 37 38 39 40 41 42 43 44 45 46 47 48 49 50
000
ASUS43 KGLD 301059
RWRGLD

GOODLAND FORECAST AREA HOURLY WEATHER ROUNDUP
NATIONAL WEATHER SERVICE GOODLAND KS
400 AM MST FRI JAN 30 2015

...OFFICIAL OBSERVATIONS...

CITY           SKY/WX    TMP DP  RH WIND       PRES   REMARKS
GOODLAND KS    MOCLDY    29  21  72 S12       30.37F WCI  19
HILL CITY KS   PTCLDY    17  13  84 W3        30.46F
IMPERIAL NEB   MOCLDY    30  22  72 S8        30.36F
MCCOOK NEB     MOCLDY    21  16  81 CALM      30.42F
AKRON CO       MOCLDY    32  21  64 S12       30.26F
BURLINGTON CO  MOCLDY    30  22  72 S14       30.33F WCI  19
LIMON CO       CLOUDY    30  22  72 SE12      30.27F
$$

...UNOFFICIAL OBSERVATIONS...

CITY           SKY/WX    TMP DP  RH WIND       PRES   REMARKS
COLBY KS       CLEAR     27  25  93 S7        30.41F
GOVE KS          N/A     17  32 100 MISG        N/A
NORTON KS      CLEAR     19  14  79 SW5       30.43F
SHARON SPRINGS   N/A     28  22  78 S12         N/A  WCI  18
KIT CARSON CO    N/A     29  22  73 MISG        N/A
YUMA CO          N/A     26  20  78 CALM        N/A
$$


USA.gov is the U.S. government's official web portal to all federal, state and local government web resources and services.